Time,TemperatureF,DewpointF,PressureIn,WindDirection,WindDirectionDegrees,WindSpeedMPH,WindSpeedGustMPH,Humidity,HourlyPrecipIn,Conditions,Clouds,dailyrainin,SoftwareType,DateUTC
2013-08-27 00:00:00,66.1,64.3,30.16,NNE,22,0.0,0.0,94,0.00,,---,0.00,VWS V14.01,2013-08-27 04:00:00,
2013-08-27 00:30:00,65.8,64.0,30.16,NNE,22,0.0,1.0,94,0.00,,---,0.00,VWS V14.01,2013-08-27 04:30:00,
2013-08-27 01:00:00,65.5,64.0,30.16,NNE,22,0.0,0.0,95,0.00,,---,0.00,VWS V14.01,2013-08-27 05:00:00,
2013-08-27 01:30:00,65.2,63.7,30.16,NNE,22,0.0,1.0,95,0.00,,---,0.00,VWS V14.01,2013-08-27 05:30:00,
2013-08-27 02:00:00,64.1,62.6,30.16,NNE,22,0.0,0.0,95,0.00,,---,0.00,VWS V14.01,2013-08-27 06:00:00,
2013-08-27 02:30:00,63.5,62.0,30.15,NNE,22,0.0,0.0,95,0.00,,---,0.00,VWS V14.01,2013-08-27 06:30:00,
2013-08-27 03:00:00,63.2,61.8,30.14,NNE,22,0.0,1.0,95,0.00,,---,0.00,VWS V14.01,2013-08-27 07:00:00,
2013-08-27 03:30:00,62.4,61.0,30.14,NNE,22,0.0,0.0,95,0.00,,---,0.00,VWS V14.01,2013-08-27 07:30:00,
2013-08-27 04:10:00,62.4,61.0,30.14,NNE,22,0.0,0.0,95,0.00,,---,0.00,VWS V14.01,2013-08-27 08:10:00,
2013-08-27 04:15:00,61.8,60.4,30.13,NNE,29,0.0,0.0,95,0.00,,---,0.00,VWS V14.01,2013-08-27 08:15:00,
2013-08-27 04:20:00,61.8,60.4,30.13,NNE,29,0.0,0.0,95,0.00,,---,0.00,VWS V14.01,2013-08-27 08:20:00,
2013-08-27 04:25:00,61.7,60.3,30.13,NNE,30,0.0,0.0,95,0.00,,---,0.00,VWS V14.01,2013-08-27 08:25:00,
2013-08-27 04:30:00,61.6,60.2,30.13,NNE,30,0.0,0.0,95,0.00,,---,0.00,VWS V14.01,2013-08-27 08:30:00,
2013-08-27 04:35:00,61.5,60.1,30.12,NNE,29,0.0,0.0,95,0.00,,---,0.00,VWS V14.01,2013-08-27 08:35:00,
2013-08-27 04:40:00,61.5,60.1,30.12,NNE,30,0.0,0.0,95,0.00,,---,0.00,VWS V14.01,2013-08-27 08:40:00,
2013-08-27 04:45:00,61.3,59.9,30.12,NNE,30,0.0,0.0,95,0.00,,---,0.00,VWS V14.01,2013-08-27 08:45:00,
2013-08-27 04:50:00,61.4,60.0,30.12,NNE,30,0.0,0.0,95,0.00,,---,0.00,VWS V14.01,2013-08-27 08:50:00,
2013-08-27 04:55:00,61.4,60.0,30.12,NNE,29,0.0,0.0,95,0.00,,---,0.00,VWS V14.01,2013-08-27 08:55:00,
2013-08-27 05:00:00,61.4,60.0,30.12,NNE,30,0.0,0.0,95,0.00,,---,0.00,VWS V14.01,2013-08-27 09:00:00,
2013-08-27 05:05:00,61.3,59.9,30.12,NNE,30,0.0,0.0,95,0.00,,---,0.00,VWS V14.01,2013-08-27 09:05:00,
2013-08-27 05:10:00,61.3,59.9,30.12,NNE,29,0.0,0.0,95,0.00,,---,0.00,VWS V14.01,2013-08-27 09:10:00,
2013-08-27 05:15:00,61.2,59.8,30.12,NNE,30,0.0,0.0,95,0.00,,---,0.00,VWS V14.01,2013-08-27 09:15:00,
2013-08-27 05:20:00,61.1,59.7,30.12,NNE,29,0.0,0.0,95,0.00,,---,0.00,VWS V14.01,2013-08-27 09:20:00,
2013-08-27 05:25:00,60.9,59.5,30.12,NNE,29,0.0,0.0,95,0.00,,---,0.00,VWS V14.01,2013-08-27 09:25:00,
2013-08-27 05:30:00,60.9,59.8,30.12,NNE,29,0.0,0.0,96,0.00,,---,0.00,VWS V14.01,2013-08-27 09:30:00,
2013-08-27 05:35:00,60.9,59.8,30.12,NNE,30,0.0,0.0,96,0.00,,---,0.00,VWS V14.01,2013-08-27 09:35:00,
2013-08-27 05:40:00,60.9,59.8,30.12,NNE,29,0.0,0.0,96,0.00,,---,0.00,VWS V14.01,2013-08-27 09:40:00,
2013-08-27 05:45:00,60.9,59.8,30.12,NNE,30,0.0,0.0,96,0.00,,---,0.00,VWS V14.01,2013-08-27 09:45:00,
2013-08-27 05:50:00,61.0,59.9,30.12,NNE,30,0.0,0.0,96,0.00,,---,0.00,VWS V14.01,2013-08-27 09:50:00,
2013-08-27 05:55:00,61.0,59.9,30.12,NNE,29,0.0,0.0,96,0.00,,---,0.00,VWS V14.01,2013-08-27 09:55:00,
2013-08-27 06:00:00,61.1,60.0,30.12,NNE,30,0.0,0.0,96,0.00,,---,0.00,VWS V14.01,2013-08-27 10:00:00,
2013-08-27 06:05:00,60.9,59.8,30.12,NNE,30,0.0,0.0,96,0.00,,---,0.00,VWS V14.01,2013-08-27 10:05:00,
2013-08-27 06:10:00,60.9,59.8,30.12,NNE,30,0.0,0.0,96,0.00,,---,0.00,VWS V14.01,2013-08-27 10:10:00,
2013-08-27 06:15:00,60.9,59.8,30.12,NNE,29,0.0,0.0,96,0.00,,---,0.00,VWS V14.01,2013-08-27 10:15:00,
2013-08-27 06:20:00,60.9,59.5,30.12,NNE,30,0.0,0.0,95,0.00,,---,0.00,VWS V14.01,2013-08-27 10:20:00,
2013-08-27 06:25:00,60.8,59.4,30.12,NNE,30,0.0,0.0,95,0.00,,---,0.00,VWS V14.01,2013-08-27 10:25:00,
2013-08-27 06:30:00,60.9,59.8,30.13,NNE,30,0.0,0.0,96,0.00,,---,0.00,VWS V14.01,2013-08-27 10:30:00,
2013-08-27 06:35:00,60.8,59.7,30.13,NNE,30,0.0,0.0,96,0.00,,---,0.00,VWS V14.01,2013-08-27 10:35:00,
2013-08-27 06:40:00,60.8,59.7,30.12,NNE,30,0.0,0.0,96,0.00,,---,0.00,VWS V14.01,2013-08-27 10:40:00,
2013-08-27 06:45:00,60.9,59.8,30.12,NNE,30,0.0,0.0,96,0.00,,---,0.00,VWS V14.01,2013-08-27 10:45:00,
2013-08-27 06:50:00,60.9,59.8,30.12,NNE,30,0.0,0.0,96,0.00,,---,0.00,VWS V14.01,2013-08-27 10:50:00,
2013-08-27 06:55:00,60.9,59.8,30.13,NNE,29,0.0,0.0,96,0.00,,---,0.00,VWS V14.01,2013-08-27 10:55:00,
2013-08-27 07:00:00,60.9,59.8,30.13,NNE,29,0.0,0.0,96,0.00,,---,0.00,VWS V14.01,2013-08-27 11:00:00,
2013-08-27 07:05:00,60.9,59.8,30.12,NNE,30,0.0,0.0,96,0.00,,---,0.00,VWS V14.01,2013-08-27 11:05:00,
2013-08-27 07:10:00,60.7,59.6,30.12,NNE,30,0.0,0.0,96,0.00,,---,0.00,VWS V14.01,2013-08-27 11:10:00,
2013-08-27 07:15:00,60.9,59.8,30.12,NNE,29,0.0,0.0,96,0.00,,---,0.00,VWS V14.01,2013-08-27 11:15:00,
2013-08-27 07:20:00,60.9,59.8,30.12,NNE,29,0.0,0.0,96,0.00,,---,0.00,VWS V14.01,2013-08-27 11:20:00,
2013-08-27 07:25:00,60.9,59.8,30.12,NNE,30,0.0,0.0,96,0.00,,---,0.00,VWS V14.01,2013-08-27 11:25:00,
2013-08-27 07:30:00,60.9,59.8,30.12,NNE,30,0.0,0.0,96,0.00,,---,0.00,VWS V14.01,2013-08-27 11:30:00,
2013-08-27 07:35:00,60.9,59.8,30.12,NNE,29,0.0,0.0,96,0.00,,---,0.00,VWS V14.01,2013-08-27 11:35:00,
2013-08-27 07:40:00,61.2,60.0,30.12,NNE,29,0.0,0.0,96,0.00,,---,0.00,VWS V14.01,2013-08-27 11:40:00,
2013-08-27 07:45:00,61.4,60.2,30.13,NNE,30,0.0,0.0,96,0.00,,---,0.00,VWS V14.01,2013-08-27 11:45:00,
2013-08-27 07:50:00,61.8,60.7,30.13,NNE,30,0.0,0.0,96,0.00,,---,0.00,VWS V14.01,2013-08-27 11:50:00,
2013-08-27 07:55:00,62.2,61.0,30.13,NNE,30,0.0,0.0,96,0.00,,---,0.00,VWS V14.01,2013-08-27 11:55:00,
2013-08-27 08:00:00,62.8,61.7,30.13,NNE,29,0.0,0.0,96,0.00,,---,0.00,VWS V14.01,2013-08-27 12:00:00,
2013-08-27 08:05:00,63.3,62.1,30.13,NNE,29,0.0,0.0,96,0.00,,---,0.00,VWS V14.01,2013-08-27 12:05:00,
2013-08-27 08:10:00,63.8,62.6,30.13,NNE,29,0.0,0.0,96,0.00,,---,0.00,VWS V14.01,2013-08-27 12:10:00,
2013-08-27 08:15:00,64.2,63.0,30.13,NNE,30,0.0,0.0,96,0.00,,---,0.00,VWS V14.01,2013-08-27 12:15:00,
2013-08-27 08:20:00,64.7,63.5,30.12,NNE,30,0.0,0.0,96,0.00,,---,0.00,VWS V14.01,2013-08-27 12:20:00,
2013-08-27 08:25:00,65.4,64.2,30.12,NNE,30,0.0,0.0,96,0.00,,---,0.00,VWS V14.01,2013-08-27 12:25:00,
2013-08-27 08:30:00,66.1,64.9,30.12,NNE,30,0.0,0.0,96,0.00,,---,0.00,VWS V14.01,2013-08-27 12:30:00,
2013-08-27 08:35:00,66.9,65.7,30.12,NNE,30,0.0,0.0,96,0.00,,---,0.00,VWS V14.01,2013-08-27 12:35:00,
2013-08-27 08:40:00,67.8,66.6,30.12,NNE,29,0.0,0.0,96,0.00,,---,0.00,VWS V14.01,2013-08-27 12:40:00,
2013-08-27 08:45:00,68.1,66.3,30.12,NNE,29,0.0,0.0,94,0.00,,---,0.00,VWS V14.01,2013-08-27 12:45:00,
2013-08-27 08:50:00,68.2,66.1,30.12,NNE,30,0.0,1.0,93,0.00,,---,0.00,VWS V14.01,2013-08-27 12:50:00,
2013-08-27 08:55:00,68.6,66.5,30.12,NNE,29,0.0,1.0,93,0.00,,---,0.00,VWS V14.01,2013-08-27 12:55:00,
2013-08-27 09:00:00,69.7,67.0,30.12,NNE,30,0.0,1.0,91,0.00,,---,0.00,VWS V14.01,2013-08-27 13:00:00,
2013-08-27 09:05:00,71.0,67.3,30.12,NNE,29,1.0,1.0,88,0.00,,---,0.00,VWS V14.01,2013-08-27 13:05:00,
2013-08-27 09:10:00,71.8,67.4,30.12,NNE,30,0.0,1.0,86,0.00,,---,0.00,VWS V14.01,2013-08-27 13:10:00,
2013-08-27 09:15:00,72.2,67.8,30.12,NNE,29,0.0,1.0,86,0.00,,---,0.00,VWS V14.01,2013-08-27 13:15:00,
2013-08-27 09:20:00,72.9,67.8,30.12,NNE,29,0.0,1.0,84,0.00,,---,0.00,VWS V14.01,2013-08-27 13:20:00,
2013-08-27 09:25:00,73.8,68.3,30.12,NNE,30,0.0,1.0,83,0.00,,---,0.00,VWS V14.01,2013-08-27 13:25:00,
2013-08-27 09:30:00,74.3,68.4,30.12,NNE,30,0.0,1.0,82,0.00,,---,0.00,VWS V14.01,2013-08-27 13:30:00,
2013-08-27 09:35:00,74.4,68.9,30.12,NNE,30,0.0,3.0,83,0.00,,---,0.00,VWS V14.01,2013-08-27 13:35:00,
2013-08-27 09:40:00,74.8,68.9,30.11,NNE,29,0.0,3.0,82,0.00,,---,0.00,VWS V14.01,2013-08-27 13:40:00,
2013-08-27 09:45:00,75.3,69.8,30.12,NNE,29,0.0,3.0,83,0.00,,---,0.00,VWS V14.01,2013-08-27 13:45:00,
2013-08-27 09:50:00,76.0,70.1,30.11,NNE,29,0.0,3.0,82,0.00,,---,0.00,VWS V14.01,2013-08-27 13:50:00,
2013-08-27 09:55:00,76.5,69.9,30.12,NNE,30,0.0,3.0,80,0.00,,---,0.00,VWS V14.01,2013-08-27 13:55:00,
2013-08-27 10:00:00,77.4,70.0,30.11,NNE,29,1.0,3.0,78,0.00,,---,0.00,VWS V14.01,2013-08-27 14:00:00,
2013-08-27 10:05:00,77.9,70.1,30.12,NNE,32,0.0,4.0,77,0.00,,---,0.00,VWS V14.01,2013-08-27 14:05:00,
2013-08-27 10:10:00,78.6,70.0,30.12,NNE,31,0.0,4.0,75,0.00,,---,0.00,VWS V14.01,2013-08-27 14:10:00,
2013-08-27 10:14:00,79.3,69.5,30.11,NNE,30,0.0,4.0,72,0.00,,---,0.00,VWS V14.01,2013-08-27 14:14:00,
2013-08-27 10:19:00,79.7,71.1,30.12,NNE,31,0.0,4.0,75,0.00,,---,0.00,VWS V14.01,2013-08-27 14:19:00,
2013-08-27 10:24:00,80.6,71.2,30.11,NNE,31,0.0,4.0,73,0.00,,---,0.00,VWS V14.01,2013-08-27 14:24:00,
2013-08-27 10:29:00,81.3,71.4,30.11,NNE,31,0.0,4.0,72,0.00,,---,0.00,VWS V14.01,2013-08-27 14:29:00,
2013-08-27 10:30:00,81.4,70.7,30.11,NNE,30,0.0,4.0,70,0.00,,---,0.00,VWS V14.01,2013-08-27 14:30:00,
2013-08-27 10:34:00,81.4,70.3,30.11,NNE,31,0.0,2.0,69,0.00,,---,0.00,VWS V14.01,2013-08-27 14:34:00,
2013-08-27 10:39:00,81.7,70.6,30.11,NNE,31,0.0,2.0,69,0.00,,---,0.00,VWS V14.01,2013-08-27 14:39:00,
2013-08-27 10:44:00,82.2,71.4,30.11,NNE,31,0.0,2.0,70,0.00,,---,0.00,VWS V14.01,2013-08-27 14:44:00,
2013-08-27 10:50:00,82.5,71.3,30.11,NNE,30,0.0,2.0,69,0.00,,---,0.00,VWS V14.01,2013-08-27 14:50:00,
2013-08-27 10:55:00,83.0,70.5,30.11,NNE,30,2.0,3.0,66,0.00,,---,0.00,VWS V14.01,2013-08-27 14:55:00,
2013-08-27 11:00:00,83.1,70.6,30.11,NNE,30,0.0,3.0,66,0.00,,---,0.00,VWS V14.01,2013-08-27 15:00:00,
2013-08-27 11:05:00,83.2,71.6,30.11,NNE,31,0.0,1.0,68,0.00,,---,0.00,VWS V14.01,2013-08-27 15:05:00,
2013-08-27 11:10:00,83.6,71.5,30.11,NNE,30,2.0,2.0,67,0.00,,---,0.00,VWS V14.01,2013-08-27 15:10:00,
2013-08-27 11:15:00,83.4,71.7,30.11,NNE,30,1.0,8.0,68,0.00,,---,0.00,VWS V14.01,2013-08-27 15:15:00,
2013-08-27 11:19:00,82.8,71.2,30.11,NNE,30,1.0,8.0,68,0.00,,---,0.00,VWS V14.01,2013-08-27 15:19:00,
2013-08-27 11:24:00,82.7,70.6,30.11,NNE,30,1.0,8.0,67,0.00,,---,0.00,VWS V14.01,2013-08-27 15:24:00,
2013-08-27 11:29:00,83.0,71.4,30.11,NNE,30,6.0,8.0,68,0.00,,---,0.00,VWS V14.01,2013-08-27 15:29:00,
2013-08-27 11:30:00,82.8,71.2,30.11,NNE,30,0.0,8.0,68,0.00,,---,0.00,VWS V14.01,2013-08-27 15:30:00,
2013-08-27 11:34:00,83.0,71.4,30.11,NNE,30,0.0,5.0,68,0.00,,---,0.00,VWS V14.01,2013-08-27 15:34:00,
2013-08-27 11:39:00,83.8,70.3,30.11,NNE,30,2.0,5.0,64,0.00,,---,0.00,VWS V14.01,2013-08-27 15:39:00,
2013-08-27 11:44:00,84.2,71.6,30.11,NNE,30,1.0,5.0,66,0.00,,---,0.00,VWS V14.01,2013-08-27 15:44:00,
2013-08-27 11:50:00,84.5,72.3,30.11,North,355,1.0,5.0,67,0.00,,---,0.00,VWS V14.01,2013-08-27 15:50:00,
2013-08-27 11:55:00,85.0,71.5,30.11,North,355,0.0,5.0,64,0.00,,---,0.00,VWS V14.01,2013-08-27 15:55:00,
2013-08-27 11:59:00,85.1,71.1,30.10,North,10,4.0,7.0,63,0.00,,---,0.00,VWS V14.01,2013-08-27 15:59:00,
2013-08-27 12:00:00,84.6,70.6,30.10,NNE,13,2.0,7.0,63,0.00,,---,0.00,VWS V14.01,2013-08-27 16:00:00,
2013-08-27 12:04:00,84.0,71.4,30.10,NNE,13,0.0,3.0,66,0.00,,---,0.00,VWS V14.01,2013-08-27 16:04:00,
2013-08-27 12:09:00,84.6,70.6,30.10,NNE,13,1.0,4.0,63,0.00,,---,0.00,VWS V14.01,2013-08-27 16:09:00,
2013-08-27 12:14:00,85.4,70.9,30.10,NNE,13,0.0,4.0,62,0.00,,---,0.00,VWS V14.01,2013-08-27 16:14:00,
2013-08-27 12:19:00,85.8,71.8,30.10,NNE,13,1.0,4.0,63,0.00,,---,0.00,VWS V14.01,2013-08-27 16:19:00,
2013-08-27 12:24:00,85.8,70.3,30.10,NNE,13,4.0,5.0,60,0.00,,---,0.00,VWS V14.01,2013-08-27 16:24:00,
2013-08-27 12:29:00,84.9,69.0,30.10,NNE,13,3.0,5.0,59,0.00,,---,0.00,VWS V14.01,2013-08-27 16:29:00,
2013-08-27 12:30:00,84.6,69.7,30.10,NNE,13,3.0,5.0,61,0.00,,---,0.00,VWS V14.01,2013-08-27 16:30:00,
2013-08-27 12:34:00,84.8,68.4,30.10,NNE,13,0.0,3.0,58,0.00,,---,0.00,VWS V14.01,2013-08-27 16:34:00,
2013-08-27 12:39:00,85.2,70.2,30.09,NNE,13,0.0,5.0,61,0.00,,---,0.00,VWS V14.01,2013-08-27 16:39:00,
2013-08-27 12:44:00,86.4,68.9,30.09,NNW,336,4.0,7.0,56,0.00,,---,0.00,VWS V14.01,2013-08-27 16:44:00,
2013-08-27 12:49:00,86.4,69.4,30.09,NNW,336,0.0,7.0,57,0.00,,---,0.00,VWS V14.01,2013-08-27 16:49:00,
2013-08-27 12:54:00,85.3,68.9,30.09,NNW,336,0.0,7.0,58,0.00,,---,0.00,VWS V14.01,2013-08-27 16:54:00,
2013-08-27 12:59:00,84.9,68.5,30.09,NNW,336,1.0,7.0,58,0.00,,---,0.00,VWS V14.01,2013-08-27 16:59:00,
2013-08-27 13:00:00,84.8,67.4,30.09,NNW,336,0.0,7.0,56,0.00,,---,0.00,VWS V14.01,2013-08-27 17:00:00,
2013-08-27 13:04:00,84.9,68.5,30.09,NNW,336,0.0,3.0,58,0.00,,---,0.00,VWS V14.01,2013-08-27 17:04:00,
2013-08-27 13:09:00,84.6,67.7,30.09,NNW,336,4.0,4.0,57,0.00,,---,0.00,VWS V14.01,2013-08-27 17:09:00,
2013-08-27 13:14:00,83.9,68.1,30.09,NNW,336,0.0,4.0,59,0.00,,---,0.00,VWS V14.01,2013-08-27 17:14:00,
2013-08-27 13:19:00,84.2,68.3,30.08,North,355,5.0,5.0,59,0.00,,---,0.00,VWS V14.01,2013-08-27 17:19:00,
2013-08-27 13:24:00,83.3,68.0,30.08,NNE,32,1.0,5.0,60,0.00,,---,0.00,VWS V14.01,2013-08-27 17:24:00,
2013-08-27 13:29:00,83.4,67.6,30.08,NNE,31,0.0,5.0,59,0.00,,---,0.00,VWS V14.01,2013-08-27 17:29:00,
2013-08-27 13:30:00,83.8,68.4,30.08,NNE,31,3.0,5.0,60,0.00,,---,0.00,VWS V14.01,2013-08-27 17:30:00,
2013-08-27 13:34:00,84.3,69.4,30.08,NNE,31,0.0,4.0,61,0.00,,---,0.00,VWS V14.01,2013-08-27 17:34:00,
2013-08-27 13:39:00,85.3,69.8,30.08,NNE,31,2.0,4.0,60,0.00,,---,0.00,VWS V14.01,2013-08-27 17:39:00,
2013-08-27 13:44:00,85.9,69.4,30.08,NNE,30,0.0,4.0,58,0.00,,---,0.00,VWS V14.01,2013-08-27 17:44:00,
2013-08-27 13:49:00,86.2,69.7,30.08,NNE,31,0.0,4.0,58,0.00,,---,0.00,VWS V14.01,2013-08-27 17:49:00,
2013-08-27 13:54:00,86.1,70.6,30.08,NNE,31,1.0,4.0,60,0.00,,---,0.00,VWS V14.01,2013-08-27 17:54:00,
2013-08-27 13:59:00,86.5,69.5,30.07,North,9,5.0,5.0,57,0.00,,---,0.00,VWS V14.01,2013-08-27 17:59:00,
2013-08-27 14:00:00,86.1,69.1,30.07,North,355,2.0,5.0,57,0.00,,---,0.00,VWS V14.01,2013-08-27 18:00:00,
2013-08-27 14:04:00,85.8,68.3,30.07,North,349,1.0,5.0,56,0.00,,---,0.00,VWS V14.01,2013-08-27 18:04:00,
2013-08-27 14:09:00,86.4,69.4,30.07,North,349,0.0,5.0,57,0.00,,---,0.00,VWS V14.01,2013-08-27 18:09:00,
2013-08-27 14:14:00,87.6,70.0,30.07,North,349,0.0,5.0,56,0.00,,---,0.00,VWS V14.01,2013-08-27 18:14:00,
2013-08-27 14:19:00,87.5,69.9,30.07,NW,321,0.0,5.0,56,0.00,,---,0.00,VWS V14.01,2013-08-27 18:19:00,
2013-08-27 14:24:00,87.0,68.9,30.07,NW,304,3.0,6.0,55,0.00,,---,0.00,VWS V14.01,2013-08-27 18:24:00,
2013-08-27 14:29:00,87.0,68.9,30.07,WNW,303,2.0,6.0,55,0.00,,---,0.00,VWS V14.01,2013-08-27 18:29:00,
2013-08-27 14:30:00,86.9,68.3,30.07,WNW,303,2.0,6.0,54,0.00,,---,0.00,VWS V14.01,2013-08-27 18:30:00,
2013-08-27 14:34:00,86.8,69.8,30.07,WNW,302,2.0,6.0,57,0.00,,---,0.00,VWS V14.01,2013-08-27 18:34:00,
2013-08-27 14:39:00,86.9,69.3,30.06,WNW,302,0.0,6.0,56,0.00,,---,0.00,VWS V14.01,2013-08-27 18:39:00,
2013-08-27 14:44:00,87.3,70.7,30.06,WNW,302,0.0,6.0,58,0.00,,---,0.00,VWS V14.01,2013-08-27 18:44:00,
2013-08-27 14:49:00,87.7,71.1,30.06,WNW,302,1.0,6.0,58,0.00,,---,0.00,VWS V14.01,2013-08-27 18:49:00,
2013-08-27 14:54:00,86.5,69.0,30.06,WNW,302,0.0,6.0,56,0.00,,---,0.00,VWS V14.01,2013-08-27 18:54:00,
2013-08-27 14:59:00,86.1,70.1,30.06,WNW,302,0.0,6.0,59,0.00,,---,0.00,VWS V14.01,2013-08-27 18:59:00,
2013-08-27 15:00:00,86.6,70.1,30.05,WNW,302,0.0,6.0,58,0.00,,---,0.00,VWS V14.01,2013-08-27 19:00:00,
2013-08-27 15:04:00,87.1,70.5,30.05,WNW,302,2.0,2.0,58,0.00,,---,0.00,VWS V14.01,2013-08-27 19:04:00,
2013-08-27 15:09:00,86.3,68.8,30.05,WNW,300,0.0,4.0,56,0.00,,---,0.00,VWS V14.01,2013-08-27 19:09:00,
2013-08-27 15:14:00,86.7,71.2,30.05,WNW,300,2.0,4.0,60,0.00,,---,0.00,VWS V14.01,2013-08-27 19:14:00,
2013-08-27 15:19:00,86.6,70.1,30.05,WNW,300,2.0,4.0,58,0.00,,---,0.00,VWS V14.01,2013-08-27 19:19:00,
2013-08-27 15:24:00,85.1,69.7,30.04,NW,311,2.0,5.0,60,0.00,,---,0.00,VWS V14.01,2013-08-27 19:24:00,
2013-08-27 15:29:00,84.5,70.1,30.04,NW,312,2.0,5.0,62,0.00,,---,0.00,VWS V14.01,2013-08-27 19:29:00,
2013-08-27 15:30:00,84.2,69.3,30.04,NW,312,0.0,5.0,61,0.00,,---,0.00,VWS V14.01,2013-08-27 19:30:00,
2013-08-27 15:34:00,84.0,69.6,30.04,NW,311,2.0,4.0,62,0.00,,---,0.00,VWS V14.01,2013-08-27 19:34:00,
2013-08-27 15:39:00,83.9,69.5,30.04,NW,311,2.0,4.0,62,0.00,,---,0.00,VWS V14.01,2013-08-27 19:39:00,
2013-08-27 15:44:00,84.1,69.2,30.04,NW,312,0.0,4.0,61,0.00,,---,0.00,VWS V14.01,2013-08-27 19:44:00,
2013-08-27 15:49:00,84.8,69.9,30.04,NW,311,1.0,4.0,61,0.00,,---,0.00,VWS V14.01,2013-08-27 19:49:00,
2013-08-27 15:54:00,85.2,69.8,30.04,NW,312,0.0,4.0,60,0.00,,---,0.00,VWS V14.01,2013-08-27 19:54:00,
2013-08-27 15:59:00,86.0,71.0,30.03,WNW,294,3.0,5.0,61,0.00,,---,0.00,VWS V14.01,2013-08-27 19:59:00,
2013-08-27 16:00:00,86.3,70.3,30.03,WNW,291,3.0,5.0,59,0.00,,---,0.00,VWS V14.01,2013-08-27 20:00:00,
2013-08-27 16:04:00,86.0,70.0,30.03,WNW,288,2.0,4.0,59,0.00,,---,0.00,VWS V14.01,2013-08-27 20:04:00,
2013-08-27 16:09:00,85.5,69.1,30.03,WNW,289,0.0,4.0,58,0.00,,---,0.00,VWS V14.01,2013-08-27 20:09:00,
2013-08-27 16:14:00,85.8,69.3,30.03,WNW,288,1.0,4.0,58,0.00,,---,0.00,VWS V14.01,2013-08-27 20:14:00,
2013-08-27 16:19:00,86.2,69.7,30.03,WNW,288,1.0,4.0,58,0.00,,---,0.00,VWS V14.01,2013-08-27 20:19:00,
2013-08-27 16:24:00,85.8,69.3,30.03,WNW,289,1.0,4.0,58,0.00,,---,0.00,VWS V14.01,2013-08-27 20:24:00,
2013-08-27 16:29:00,86.0,70.5,30.03,West,276,1.0,6.0,60,0.00,,---,0.00,VWS V14.01,2013-08-27 20:29:00,
2013-08-27 16:30:00,86.2,70.2,30.03,West,275,0.0,6.0,59,0.00,,---,0.00,VWS V14.01,2013-08-27 20:30:00,
2013-08-27 16:34:00,86.3,69.8,30.03,West,275,2.0,4.0,58,0.00,,---,0.00,VWS V14.01,2013-08-27 20:34:00,
2013-08-27 16:39:00,86.7,70.2,30.03,West,271,0.0,5.0,58,0.00,,---,0.00,VWS V14.01,2013-08-27 20:39:00,
2013-08-27 16:44:00,87.1,70.0,30.03,West,270,5.0,6.0,57,0.00,,---,0.00,VWS V14.01,2013-08-27 20:44:00,
2013-08-27 16:49:00,86.9,68.8,30.03,West,267,1.0,6.0,55,0.00,,---,0.00,VWS V14.01,2013-08-27 20:49:00,
2013-08-27 16:54:00,87.1,69.0,30.03,West,267,0.0,6.0,55,0.00,,---,0.00,VWS V14.01,2013-08-27 20:54:00,
2013-08-27 16:59:00,86.5,69.5,30.03,West,267,0.0,6.0,57,0.00,,---,0.00,VWS V14.01,2013-08-27 20:59:00,
2013-08-27 17:00:00,86.0,69.0,30.03,West,267,2.0,6.0,57,0.00,,---,0.00,VWS V14.01,2013-08-27 21:00:00,
2013-08-27 17:04:00,85.6,69.6,30.02,West,267,0.0,3.0,59,0.00,,---,0.00,VWS V14.01,2013-08-27 21:04:00,
2013-08-27 17:09:00,85.4,69.4,30.02,West,267,1.0,4.0,59,0.00,,---,0.00,VWS V14.01,2013-08-27 21:09:00,
2013-08-27 17:14:00,85.5,70.5,30.03,West,267,0.0,4.0,61,0.00,,---,0.00,VWS V14.01,2013-08-27 21:14:00,
2013-08-27 17:19:00,85.7,70.7,30.03,West,267,2.0,5.0,61,0.00,,---,0.00,VWS V14.01,2013-08-27 21:19:00,
2013-08-27 17:24:00,85.9,71.4,30.02,West,267,1.0,5.0,62,0.00,,---,0.00,VWS V14.01,2013-08-27 21:24:00,
2013-08-27 17:29:00,86.0,70.5,30.02,West,261,0.0,6.0,60,0.00,,---,0.00,VWS V14.01,2013-08-27 21:29:00,
2013-08-27 17:30:00,86.0,71.0,30.02,West,261,4.0,6.0,61,0.00,,---,0.00,VWS V14.01,2013-08-27 21:30:00,
2013-08-27 17:34:00,85.6,69.6,30.02,West,261,2.0,4.0,59,0.00,,---,0.00,VWS V14.01,2013-08-27 21:34:00,
2013-08-27 17:39:00,85.4,71.4,30.02,West,261,1.0,4.0,63,0.00,,---,0.00,VWS V14.01,2013-08-27 21:39:00,
2013-08-27 17:44:00,85.2,70.7,30.02,West,260,3.0,5.0,62,0.00,,---,0.00,VWS V14.01,2013-08-27 21:44:00,
2013-08-27 17:49:00,85.3,71.3,30.02,West,261,0.0,5.0,63,0.00,,---,0.00,VWS V14.01,2013-08-27 21:49:00,
2013-08-27 17:54:00,85.8,70.3,30.02,West,261,2.0,5.0,60,0.00,,---,0.00,VWS V14.01,2013-08-27 21:54:00,
2013-08-27 17:59:00,85.8,70.3,30.02,West,261,1.0,5.0,60,0.00,,---,0.00,VWS V14.01,2013-08-27 21:59:00,
2013-08-27 18:00:00,86.0,69.5,30.02,West,261,0.0,5.0,58,0.00,,---,0.00,VWS V14.01,2013-08-27 22:00:00,
2013-08-27 18:04:00,86.2,70.2,30.02,West,260,0.0,1.0,59,0.00,,---,0.00,VWS V14.01,2013-08-27 22:04:00,
2013-08-27 18:09:00,85.9,70.9,30.02,West,260,2.0,2.0,61,0.00,,---,0.00,VWS V14.01,2013-08-27 22:09:00,
2013-08-27 18:14:00,85.6,70.6,30.02,West,261,0.0,3.0,61,0.00,,---,0.00,VWS V14.01,2013-08-27 22:14:00,
2013-08-27 18:19:00,85.5,69.6,30.02,West,261,0.0,3.0,59,0.00,,---,0.00,VWS V14.01,2013-08-27 22:19:00,
2013-08-27 18:24:00,85.5,70.0,30.02,West,261,0.0,3.0,60,0.00,,---,0.00,VWS V14.01,2013-08-27 22:24:00,
2013-08-27 18:29:00,85.3,70.3,30.02,West,261,0.0,3.0,61,0.00,,---,0.00,VWS V14.01,2013-08-27 22:29:00,
2013-08-27 18:30:00,85.2,70.2,30.02,West,260,0.0,3.0,61,0.00,,---,0.00,VWS V14.01,2013-08-27 22:30:00,
2013-08-27 18:34:00,85.1,70.2,30.02,West,261,1.0,1.0,61,0.00,,---,0.00,VWS V14.01,2013-08-27 22:34:00,
2013-08-27 18:39:00,84.8,70.8,30.02,West,261,0.0,1.0,63,0.00,,---,0.00,VWS V14.01,2013-08-27 22:39:00,
2013-08-27 18:44:00,84.9,71.4,30.02,West,261,0.0,1.0,64,0.00,,---,0.00,VWS V14.01,2013-08-27 22:44:00,
2013-08-27 18:49:00,85.0,71.9,30.02,West,260,0.0,3.0,65,0.00,,---,0.00,VWS V14.01,2013-08-27 22:49:00,
2013-08-27 18:54:00,84.9,71.8,30.02,West,261,0.0,3.0,65,0.00,,---,0.00,VWS V14.01,2013-08-27 22:54:00,
2013-08-27 18:59:00,84.7,73.0,30.02,West,260,0.0,3.0,68,0.00,,---,0.00,VWS V14.01,2013-08-27 22:59:00,
2013-08-27 19:00:00,84.6,72.4,30.02,West,261,0.0,3.0,67,0.00,,---,0.00,VWS V14.01,2013-08-27 23:00:00,
2013-08-27 19:04:00,84.3,71.7,30.02,West,261,0.0,1.0,66,0.00,,---,0.00,VWS V14.01,2013-08-27 23:04:00,
2013-08-27 19:09:00,83.8,72.1,30.02,West,260,0.0,1.0,68,0.00,,---,0.00,VWS V14.01,2013-08-27 23:09:00,
2013-08-27 19:14:00,83.3,72.9,30.02,West,261,0.0,1.0,71,0.00,,---,0.00,VWS V14.01,2013-08-27 23:14:00,
2013-08-27 19:19:00,83.0,73.5,30.02,West,261,0.0,1.0,73,0.00,,---,0.00,VWS V14.01,2013-08-27 23:19:00,
2013-08-27 19:24:00,82.7,73.2,30.02,West,261,0.0,1.0,73,0.00,,---,0.00,VWS V14.01,2013-08-27 23:24:00,
2013-08-27 19:29:00,82.5,73.8,30.02,West,261,0.0,1.0,75,0.00,,---,0.00,VWS V14.01,2013-08-27 23:29:00,
2013-08-27 19:30:00,82.4,74.5,30.02,West,260,0.0,1.0,77,0.00,,---,0.00,VWS V14.01,2013-08-27 23:30:00,
2013-08-27 19:34:00,82.1,74.2,30.02,West,261,0.0,1.0,77,0.00,,---,0.00,VWS V14.01,2013-08-27 23:34:00,
2013-08-27 19:39:00,81.6,73.7,30.02,West,261,0.0,1.0,77,0.00,,---,0.00,VWS V14.01,2013-08-27 23:39:00,
2013-08-27 19:44:00,81.2,73.3,30.02,West,260,0.0,2.0,77,0.00,,---,0.00,VWS V14.01,2013-08-27 23:44:00,
2013-08-27 19:49:00,80.9,73.4,30.02,West,261,0.0,2.0,78,0.00,,---,0.00,VWS V14.01,2013-08-27 23:49:00,
2013-08-27 19:54:00,80.5,73.4,30.02,West,260,0.0,2.0,79,0.00,,---,0.00,VWS V14.01,2013-08-27 23:54:00,
2013-08-27 19:59:00,79.9,73.2,30.02,West,260,0.0,2.0,80,0.00,,---,0.00,VWS V14.01,2013-08-27 23:59:00,
2013-08-27 20:00:00,79.8,73.1,30.02,West,261,0.0,2.0,80,0.00,,---,0.00,VWS V14.01,2013-08-28 00:00:00,
2013-08-27 20:04:00,79.7,73.0,30.02,West,261,0.0,0.0,80,0.00,,---,0.00,VWS V14.01,2013-08-28 00:04:00,
2013-08-27 20:09:00,79.4,73.4,30.02,West,261,0.0,0.0,82,0.00,,---,0.00,VWS V14.01,2013-08-28 00:09:00,
2013-08-27 20:14:00,79.0,73.0,30.02,West,261,0.0,0.0,82,0.00,,---,0.00,VWS V14.01,2013-08-28 00:14:00,
2013-08-27 20:19:00,78.7,73.1,30.02,West,261,0.0,0.0,83,0.00,,---,0.00,VWS V14.01,2013-08-28 00:19:00,
2013-08-27 20:24:00,78.4,73.5,30.02,West,261,0.0,0.0,85,0.00,,---,0.00,VWS V14.01,2013-08-28 00:24:00,
2013-08-27 20:29:00,77.8,72.9,30.02,West,261,0.0,0.0,85,0.00,,---,0.00,VWS V14.01,2013-08-28 00:29:00,
2013-08-27 20:30:00,77.6,72.7,30.02,West,261,0.0,1.0,85,0.00,,---,0.00,VWS V14.01,2013-08-28 00:30:00,
2013-08-27 20:34:00,77.4,72.5,30.02,West,261,0.0,0.0,85,0.00,,---,0.00,VWS V14.01,2013-08-28 00:34:00,
2013-08-27 20:39:00,77.1,72.2,30.02,West,260,0.0,0.0,85,0.00,,---,0.00,VWS V14.01,2013-08-28 00:39:00,
2013-08-27 20:44:00,76.7,72.2,30.02,West,260,0.0,0.0,86,0.00,,---,0.00,VWS V14.01,2013-08-28 00:44:00,
2013-08-27 20:49:00,76.4,72.2,30.02,West,261,0.0,0.0,87,0.00,,---,0.00,VWS V14.01,2013-08-28 00:49:00,
2013-08-27 20:54:00,76.0,72.2,30.03,West,260,0.0,0.0,88,0.00,,---,0.00,VWS V14.01,2013-08-28 00:54:00,
2013-08-27 20:59:00,75.6,72.1,30.03,West,261,0.0,0.0,89,0.00,,---,0.00,VWS V14.01,2013-08-28 00:59:00,
2013-08-27 21:00:00,75.4,72.3,30.03,West,260,0.0,0.0,90,0.00,,---,0.00,VWS V14.01,2013-08-28 01:00:00,
2013-08-27 21:04:00,75.3,72.2,30.03,West,260,0.0,0.0,90,0.00,,---,0.00,VWS V14.01,2013-08-28 01:04:00,
2013-08-27 21:09:00,75.0,71.9,30.03,West,261,0.0,0.0,90,0.00,,---,0.00,VWS V14.01,2013-08-28 01:09:00,
2013-08-27 21:14:00,74.6,71.5,30.03,West,260,0.0,0.0,90,0.00,,---,0.00,VWS V14.01,2013-08-28 01:14:00,
2013-08-27 21:19:00,74.4,71.3,30.03,West,260,0.0,0.0,90,0.00,,---,0.00,VWS V14.01,2013-08-28 01:19:00,
2013-08-27 21:24:00,74.0,71.2,30.03,West,261,0.0,1.0,91,0.00,,---,0.00,VWS V14.01,2013-08-28 01:24:00,
2013-08-27 21:29:00,73.9,71.4,30.03,West,261,0.0,1.0,92,0.00,,---,0.00,VWS V14.01,2013-08-28 01:29:00,
2013-08-27 21:30:00,73.8,71.3,30.03,West,261,0.0,1.0,92,0.00,,---,0.00,VWS V14.01,2013-08-28 01:30:00,
2013-08-27 21:34:00,73.7,71.2,30.03,West,260,0.0,0.0,92,0.00,,---,0.00,VWS V14.01,2013-08-28 01:34:00,
2013-08-27 21:39:00,73.5,71.0,30.04,West,260,0.0,0.0,92,0.00,,---,0.00,VWS V14.01,2013-08-28 01:39:00,
2013-08-27 21:44:00,73.4,70.9,30.04,West,261,0.0,0.0,92,0.00,,---,0.00,VWS V14.01,2013-08-28 01:44:00,
2013-08-27 21:49:00,73.2,70.7,30.04,West,261,0.0,0.0,92,0.00,,---,0.00,VWS V14.01,2013-08-28 01:49:00,
2013-08-27 21:54:00,72.9,70.4,30.04,West,260,0.0,0.0,92,0.00,,---,0.00,VWS V14.01,2013-08-28 01:54:00,
2013-08-27 22:00:00,72.7,70.6,30.04,West,260,0.0,0.0,93,0.00,,---,0.00,VWS V14.01,2013-08-28 02:00:00,
2013-08-27 22:05:00,72.7,70.6,30.04,West,261,0.0,0.0,93,0.00,,---,0.00,VWS V14.01,2013-08-28 02:05:00,
2013-08-27 22:10:00,72.6,70.5,30.04,West,261,0.0,0.0,93,0.00,,---,0.00,VWS V14.01,2013-08-28 02:10:00,
2013-08-27 22:15:00,72.5,70.4,30.04,West,260,0.0,1.0,93,0.00,,---,0.00,VWS V14.01,2013-08-28 02:15:00,
2013-08-27 22:20:00,72.2,70.1,30.05,West,260,0.0,1.0,93,0.00,,---,0.00,VWS V14.01,2013-08-28 02:20:00,
2013-08-27 22:26:00,71.9,69.8,30.05,West,261,0.0,1.0,93,0.00,,---,0.00,VWS V14.01,2013-08-28 02:26:00,
2013-08-27 22:30:00,71.8,70.0,30.05,West,260,0.0,1.0,94,0.00,,---,0.00,VWS V14.01,2013-08-28 02:30:00,
2013-08-27 22:31:00,71.8,70.0,30.05,West,261,0.0,1.0,94,0.00,,---,0.00,VWS V14.01,2013-08-28 02:31:00,
2013-08-27 22:36:00,71.7,69.9,30.05,West,261,0.0,0.0,94,0.00,,---,0.00,VWS V14.01,2013-08-28 02:36:00,
2013-08-27 22:41:00,71.6,69.8,30.05,West,261,0.0,0.0,94,0.00,,---,0.00,VWS V14.01,2013-08-28 02:41:00,
2013-08-27 22:46:00,71.4,69.6,30.05,West,260,0.0,0.0,94,0.00,,---,0.00,VWS V14.01,2013-08-28 02:46:00,
2013-08-27 22:51:00,71.2,69.4,30.05,West,261,0.0,0.0,94,0.00,,---,0.00,VWS V14.01,2013-08-28 02:51:00,
2013-08-27 22:56:00,71.1,69.3,30.05,West,261,0.0,0.0,94,0.00,,---,0.00,VWS V14.01,2013-08-28 02:56:00,
2013-08-27 23:00:00,71.0,69.2,30.05,West,261,0.0,0.0,94,0.00,,---,0.00,VWS V14.01,2013-08-28 03:00:00,
2013-08-27 23:01:00,71.0,69.2,30.05,West,260,0.0,0.0,94,0.00,,---,0.00,VWS V14.01,2013-08-28 03:01:00,
2013-08-27 23:06:00,70.8,69.0,30.05,West,261,0.0,0.0,94,0.00,,---,0.00,VWS V14.01,2013-08-28 03:06:00,
2013-08-27 23:11:00,70.8,69.0,30.06,West,261,0.0,0.0,94,0.00,,---,0.00,VWS V14.01,2013-08-28 03:11:00,
2013-08-27 23:16:00,70.8,69.0,30.06,West,261,0.0,0.0,94,0.00,,---,0.00,VWS V14.01,2013-08-28 03:16:00,
2013-08-27 23:21:00,70.7,68.9,30.06,West,260,0.0,0.0,94,0.00,,---,0.00,VWS V14.01,2013-08-28 03:21:00,
2013-08-27 23:26:00,70.8,69.3,30.06,West,261,0.0,0.0,95,0.00,,---,0.00,VWS V14.01,2013-08-28 03:26:00,
2013-08-27 23:30:00,70.8,69.3,30.06,West,260,0.0,0.0,95,0.00,,---,0.00,VWS V14.01,2013-08-28 03:30:00,
2013-08-27 23:31:00,70.8,69.3,30.06,West,261,0.0,0.0,95,0.00,,---,0.00,VWS V14.01,2013-08-28 03:31:00,
2013-08-27 23:36:00,70.8,69.3,30.05,West,260,0.0,0.0,95,0.00,,---,0.00,VWS V14.01,2013-08-28 03:36:00,
2013-08-27 23:41:00,70.6,69.1,30.05,West,260,0.0,0.0,95,0.00,,---,0.00,VWS V14.01,2013-08-28 03:41:00,
2013-08-27 23:46:00,70.5,69.0,30.05,West,261,0.0,0.0,95,0.00,,---,0.00,VWS V14.01,2013-08-28 03:46:00,
2013-08-27 23:51:00,70.3,68.8,30.05,West,261,0.0,0.0,95,0.00,,---,0.00,VWS V14.01,2013-08-28 03:51:00,
2013-08-27 23:56:00,70.3,68.8,30.05,West,261,0.0,0.0,95,0.00,,---,0.00,VWS V14.01,2013-08-28 03:56:00,